User: anonymous   Login
Location: Bittelbronn
(48.4454°N, 8.5870°E)
Time: 02:35:48
(UTC+00:00)
Language:

Genesis I - Orbit

View from above orbital plane
View from above orbital plane
View from above satellite
View from above satellite

Ground track
Ground track

The orbit data is extracted from the following two-line orbital elements,

1 29252U 06029A   24194.05683464  .00020401  00000-0  51039-3 0  9991
2 29252  64.5151  82.0527 0026479 319.4537  40.4624 15.39800569994411
Epoch (UTC): 12 July 2024 01:21:50
Eccentricity: 0.0026479
inclination: 64.5151°
perigee height: 428 km
apogee height: 465 km
right ascension of ascending node: 82.0527°
argument of perigee: 319.4537°
revolutions per day: 15.39800569
mean anomaly at epoch: 40.4624°
orbit number at epoch: 99441

The dashed part of the orbit path shows where the satellite is in the earth's shadow,  

DLR